Terug naar catalogus

GEESAT 3-06

ActiefWetenschapLEO
NORAD 61016·PAYLOAD·🇨🇳 China

Gelanceerd Sep 5, 2024 vanaf Taiyuan Satellite Launch Center

Loading…

Volgende Passages (komende 24 uur)

TLE

VersSource: Space-Track

Epoch: Sep 14, 2026, 13:53 UTC

1 61016U 24159F   26257.57912933  .00001430  00000-0  19471-3 0  9999
2 61016  49.9992  28.6178 0016161  62.3311 297.9266 14.84496487110043

Volg GEESAT 3-06 in realtime met AllMySat

Download on the App Store